Weather History for KJCT - January, 2014

Change the Weather History Date:

Tuesday, January 14, 2014

  Actual Average Record
Temperature  
Mean Temperature 46 °F -  
Max Temperature 69 °F 60 °F 69 °F (2014)
Min Temperature 23 °F 32 °F 21 °F (1997)
Degree Days  
Heating Degree Days 19    
Moisture  
Dew Point 22 °F    
Average Humidity 46    
Maximum Humidity 85    
Minimum Humidity 7    
Precipitation  
Precipitation 0.00 in - - ()
Sea Level Pressure  
Sea Level Pressure 30.15 in    
Wind  
Wind Speed 6 mph (NW)    
Max Wind Speed 20 mph    
Max Gust Speed 28 mph    
Visibility 10 miles    
Events Rain    
Averages and records for this station are not official NWS values.
T = Trace of Precipitation, MM = Missing Value Source: NWS Daily Summary

Daily Weather History Graph

Daily Weather History Graph

Search for Another Location

Airport or City:

Trip Planner

Search our weather history database for the weather conditions in past years. The results will help you decide how hot, cold, wet, or windy it might be!

Date:

Astronomy

Jan. 14, 2014 Rise Set
Actual Time 7:36 AM CST 5:59 PM CST
Civil Twilight 7:10 AM CST 6:25 PM CST
Nautical Twilight 6:41 AM CST 6:55 PM CST
Astronomical Twilight 6:12 AM CST 7:24 PM CST
Moon 5:04 PM CST (1/14) 6:14 AM CST (1/14)
Length of Visible Light 11h 14m
Length of Day
10h 22m
Waxing Gibbous, 98% of the Moon is Illuminated
Jan 14
Waxing Gibbous
Jan 15
Full
Jan 23
Last Quarter
Jan 30
New
Feb 6
First Quarter

Hourly Weather History & Observations

Time (CST) Temp. Windchill Dew Point Humidity Pressure Visibility Wind Dir Wind Speed Gust Speed Precip Events Conditions
12:51 AM 28.0 °F 24.2 °F 21.0 °F 75% 30.09 in 10.0 mi West 3.5 mph - N/A   Clear
1:51 AM 28.0 °F - 21.0 °F 75% 30.08 in 10.0 mi Calm Calm - N/A   Clear
2:51 AM 27.0 °F 23.0 °F 19.9 °F 75% 30.07 in 10.0 mi West 3.5 mph - N/A   Clear
3:51 AM 26.1 °F - 19.9 °F 78% 30.07 in 10.0 mi Calm Calm - N/A   Clear
4:51 AM 25.0 °F 20.7 °F 19.0 °F 78% 30.06 in 10.0 mi West 3.5 mph - N/A   Clear
5:51 AM 26.1 °F 21.9 °F 19.9 °F 78% 30.06 in 10.0 mi West 3.5 mph - N/A   Clear
6:51 AM 24.1 °F 17.0 °F 19.0 °F 81% 30.07 in 10.0 mi WNW 5.8 mph - N/A   Clear
7:51 AM 23.0 °F 18.4 °F 19.0 °F 85% 30.09 in 9.0 mi West 3.5 mph - N/A   Clear
8:51 AM 30.9 °F 26.2 °F 21.9 °F 69% 30.10 in 9.0 mi WNW 4.6 mph - N/A   Clear
9:51 AM 46.0 °F - 23.0 °F 40% 30.11 in 8.0 mi Calm Calm - N/A   Clear
10:51 AM 57.0 °F - 21.0 °F 25% 30.09 in 10.0 mi NNW 3.5 mph - N/A   Clear
11:51 AM 64.0 °F - 15.1 °F 15% 30.06 in 10.0 mi West 13.8 mph - 0.00 in Rain Light Rain
1:51 PM 69.1 °F - 18.0 °F 14% 30.07 in 9.0 mi NW 18.4 mph 25.3 mph N/A   Clear
2:51 PM 66.9 °F - 19.0 °F 16% 30.07 in - NNW 17.3 mph 27.6 mph N/A   Unknown
3:51 PM 66.0 °F - 19.0 °F 17% 30.11 in 10.0 mi North 16.1 mph 25.3 mph N/A   Unknown
4:51 PM 64.0 °F - 17.1 °F 16% 30.16 in 10.0 mi North 18.4 mph 26.5 mph N/A   Clear
5:51 PM 60.1 °F - 23.0 °F 24% 30.20 in 10.0 mi North 8.1 mph - N/A   Clear
6:51 PM 55.0 °F - 26.1 °F 33% 30.25 in 10.0 mi North 4.6 mph - N/A   Clear
7:51 PM 51.1 °F - 27.0 °F 39% 30.29 in 10.0 mi North 8.1 mph - N/A   Clear
8:51 PM 53.1 °F - 28.9 °F 40% 30.33 in 10.0 mi NNE 19.6 mph 26.5 mph N/A   Clear
9:51 PM 50.0 °F - 30.0 °F 46% 30.35 in 10.0 mi NNE 18.4 mph 23.0 mph N/A   Clear
10:51 PM 48.0 °F - 27.0 °F 44% 30.37 in 10.0 mi NE 10.4 mph - N/A   Clear
11:51 PM 45.0 °F 42.6 °F 26.1 °F 48% 30.40 in 10.0 mi NE 4.6 mph - N/A   Clear